Location: Lane
(33.5226°N, 79.8788°W)
Time: 09:40:16
(UTC+00:00)

Altair - Pass Details

Date: 10 October 2022
Orbit: 1501 x 1682 km, 47.2° (Epoch: 30 November)

Event Time Altitude Azimuth Distance (km) Brightness Sun altitude
Rises 07:26:13 0° 227° (SW) 4,666 - -48.0°
Reaches altitude 10° 07:29:12 10° 226° (SW) 3,703 - -47.5°
Maximum altitude 07:38:36 83° 140° (SE) 1,593 - -45.8°
Exits shadow 07:41:29 52° 61° (ENE) 1,914 8.0 -45.2°
Drops below altitude 10° 07:48:25 10° 55° (NE) 3,858 10.2 -44.0°
Sets 07:51:36 0° 54° (NE) 4,868 10.9 -43.4°
